Location: Central Falls
(41.8900°N, 71.3929°W)
Time: 12:35:39
(UTC+00:00)

Courier 1B Rocket - Pass Details

Date: 03 December 2023
Orbit: 920 x 1202 km, 28.2° (Epoch: 01 March)

Event Time Altitude Azimuth Distance (km) Brightness Sun altitude
Rises 17:51:33 0° 229° (SW) 3,650 9.0 23.6°
Reaches altitude 10° 17:54:58 10° 213° (SSW) 2,664 9.1 23.4°
Maximum altitude 17:59:23 20° 169° (S) 2,021 7.9 23.1°
Drops below altitude 10° 18:03:42 10° 125° (SE) 2,607 7.5 22.8°
Sets 18:07:00 0° 108° (ESE) 3,546 7.9 22.6°
